Starlink 3131

operational
NORAD ID: 49427 Int'l Des: 2021-104 Owner: SPXS Country: US Constellation: starlink
LEOCIRCULAR

About Starlink 3131

Description loading...

Live Position

Loading 3D Globe...

Upcoming Passes

Altitude History

Altitude vs Time

uPlot chart will show altitude changes over time

Two-Line Element Set

1 49427U 21104V 25303.84186225 .00000241 00000-0 33224-4 0 9998
2 49427 53.2168 92.0381 0001297 82.6850 277.4289 15.08844406219038
Epoch: Oct 30, 2025 • Age: 22 hours

Current Status

Altitude 558.4 km
Velocity 7.58 km/s
Sub-Earth Point -51.33°S, 67.5°E
Launch Date Nov 13, 2021
Age 3.9 years
Type internet

Technical Details

Classification Payload
Mass 290.00 kg
Dry Mass 270.00 kg
Total Mass 290.00 kg
Length 0.20 m
Diameter 2.80 m
Span 9.00 m
Shape Box + pan
Manufacturer SPXS
Bus Type Starlink
Phase Status In Orbit
Owner/State SPXS/US

Large Constellations

Loading constellations...